| time (UTC) | temp F | wind direction | speed knots | gust knots | rain 1hr in | rain 24hr in | rain mn in | humidity % | barometer mb |
| 20260504234406 | 73 | 31 | 0.0 | 6.1 | 0.00 | 0.00 | 0.00 | 50 | 1015.3 |
| 20260504233905 | 73 | 210 | 1.7 | 5.2 | 0.00 | 0.00 | 0.00 | 49 | 1015.3 |
| 20260504232355 | 74 | 182 | 0.9 | 5.2 | 0.00 | 0.00 | 0.00 | 49 | 1015.3 |
| 20260504231353 | 74 | 181 | 3.5 | 5.2 | 0.00 | 0.00 | 0.00 | 48 | 1015.3 |
| 20260504230344 | 74 | 287 | 0.9 | 7.0 | 0.00 | 0.00 | 0.00 | 47 | 1015.6 |
| 20260504225343 | 74 | 240 | 0.9 | 6.1 | 0.00 | 0.00 | 0.00 | 46 | 1015.6 |
| 20260504224336 | 74 | 218 | 1.7 | 6.1 | 0.00 | 0.00 | 0.00 | 46 | 1015.3 |
| 20260504223331 | 75 | 205 | 2.6 | 8.7 | 0.00 | 0.00 | 0.00 | 44 | 1015.3 |
| 20260504222325 | 74 | 187 | 2.6 | 7.0 | 0.00 | 0.00 | 0.00 | 45 | 1015.6 |
| 20260504221322 | 75 | 176 | 1.7 | 7.8 | 0.00 | 0.00 | 0.00 | 45 | 1015.9 |
| 20260504220315 | 75 | 183 | 0.9 | 6.1 | 0.00 | 0.00 | 0.00 | 42 | 1015.9 |
| 20260504215313 | 75 | 209 | 1.7 | 6.1 | 0.00 | 0.00 | 0.00 | 43 | 1015.9 |
| 20260504214306 | 75 | 177 | 0.9 | 7.8 | 0.00 | 0.00 | 0.00 | 42 | 1015.9 |
| 20260504212257 | 75 | 182 | 0.9 | 5.2 | 0.00 | 0.00 | 0.00 | 39 | 1015.9 |
| 20260504211254 | 75 | 153 | 0.9 | 6.1 | 0.00 | 0.00 | 0.00 | 39 | 1015.9 |
| 20260504210248 | 76 | 148 | 3.5 | 8.7 | 0.00 | 0.00 | 0.00 | 40 | 1015.6 |
| 20260504205245 | 76 | 188 | 0.9 | 7.8 | 0.00 | 0.00 | 0.00 | 39 | 1015.9 |
| 20260504204238 | 76 | 191 | 3.5 | 6.1 | 0.00 | 0.00 | 0.00 | 38 | 1016.3 |
| 20260504203737 | 76 | 24 | 1.7 | 6.1 | 0.00 | 0.00 | 0.00 | 40 | 1016.6 |
| 20260504202228 | 76 | 188 | 3.5 | 6.1 | 0.00 | 0.00 | 0.00 | 38 | 1016.6 |
| 20260504201223 | 76 | 177 | 5.2 | 7.8 | 0.00 | 0.00 | 0.00 | 39 | 1016.6 |
| 20260504200217 | 76 | 205 | 2.6 | 7.8 | 0.00 | 0.00 | 0.00 | 38 | 1017.0 |
| 20260504195715 | 77 | 217 | 0.0 | 11.3 | 0.00 | 0.00 | 0.00 | 38 | 1017.0 |
| 20260504194215 | 76 | 161 | 0.0 | 5.2 | 0.00 | 0.00 | 0.00 | 39 | 1017.0 |
| 20260504193210 | 76 | 188 | 3.5 | 8.7 | 0.00 | 0.00 | 0.00 | 39 | 1017.3 |
| 20260504192204 | 77 | 203 | 1.7 | 8.7 | 0.00 | 0.00 | 0.00 | 39 | 1017.3 |
| 20260504191202 | 77 | 202 | 5.2 | 7.0 | 0.00 | 0.00 | 0.00 | 39 | 1017.3 |
| 20260504190153 | 77 | 183 | 1.7 | 6.1 | 0.00 | 0.00 | 0.00 | 40 | 1017.6 |
| 20260504185149 | 78 | 185 | 3.5 | 8.7 | 0.00 | 0.00 | 0.00 | 40 | 1017.6 |
| 20260504184141 | 76 | 84 | 0.0 | 7.8 | 0.00 | 0.00 | 0.00 | 41 | 1017.6 |
| 20260504183136 | 76 | 191 | 1.7 | 7.0 | 0.00 | 0.00 | 0.00 | 42 | 1017.6 |
| 20260504182638 | 76 | 212 | 2.6 | 7.0 | 0.00 | 0.00 | 0.00 | 40 | 1018.0 |
| 20260504181133 | 76 | 229 | 0.0 | 6.1 | 0.00 | 0.00 | 0.00 | 43 | 1018.0 |
| 20260504180125 | 76 | 202 | 3.5 | 7.0 | 0.00 | 0.00 | 0.00 | 43 | 1018.0 |
| 20260504175123 | 76 | 211 | 3.5 | 12.2 | 0.00 | 0.00 | 0.00 | 41 | 1018.0 |
| 20260504174116 | 75 | 190 | 5.2 | 7.0 | 0.00 | 0.00 | 0.00 | 42 | 1018.0 |
| 20260504173113 | 75 | 184 | 3.5 | 7.0 | 0.00 | 0.00 | 0.00 | 41 | 1018.3 |
| 20260504172106 | 75 | 178 | 3.5 | 8.7 | 0.00 | 0.00 | 0.00 | 40 | 1018.3 |
| 20260504171604 | 76 | 203 | 2.6 | 7.0 | 0.00 | 0.00 | 0.00 | 39 | 1018.3 |
| 20260504151008 | 74 | 177 | 3.5 | 7.0 | 0.00 | 0.00 | 0.00 | 40 | 1018.6 |
| 20260504150503 | 76 | 179 | 2.6 | 7.0 | 0.00 | 0.00 | 0.00 | 39 | 1018.6 |
| 20260504140940 | 71 | 318 | 1.7 | 3.5 | 0.00 | 0.00 | 0.00 | 55 | 1019.0 |
| 20260504081658 | 62 | 316 | 0.0 | 1.7 | 0.00 | 0.00 | 0.00 | 72 | 1018.0 |
| 20260504080655 | 62 | 281 | 0.0 | 0.0 | 0.00 | 0.00 | 0.00 | 72 | 1018.0 |
| 20260504050533 | 64 | 29 | 0.9 | 2.6 | 0.00 | 0.00 | 0.00 | 67 | 1020.0 |
| 20260504045529 | 65 | 354 | 1.7 | 2.6 | 0.00 | 0.00 | 0.00 | 66 | 1020.0 |
| 20260504044525 | 65 | 307 | 0.0 | 3.5 | 0.00 | 0.00 | 0.00 | 64 | 1020.0 |
| 20260504044022 | 65 | 175 | 0.0 | 1.7 | 0.00 | 0.00 | 0.00 | 61 | 1020.0 |
| 20260504042515 | 65 | 299 | 0.0 | 0.9 | 0.00 | 0.00 | 0.00 | 60 | 1020.0 |
| 20260504041509 | 65 | 207 | 0.0 | 0.9 | 0.00 | 0.00 | 0.00 | 61 | 1020.0 |
| 20260504040506 | 66 | 272 | 0.0 | 0.9 | 0.00 | 0.00 | 0.00 | 60 | 1020.0 |
| 20260504035459 | 66 | 178 | 0.0 | 1.7 | 0.00 | 0.00 | 0.00 | 60 | 1020.0 |
| 20260504034458 | 66 | 246 | 0.0 | 0.9 | 0.00 | 0.00 | 0.00 | 59 | 1020.0 |
| 20260504033448 | 66 | 184 | 0.9 | 1.7 | 0.00 | 0.00 | 0.00 | 58 | 1020.0 |
| 20260504032448 | 67 | 230 | 0.0 | 1.7 | 0.00 | 0.00 | 0.00 | 57 | 1020.0 |
| 20260504031440 | 67 | 263 | 0.9 | 2.6 | 0.00 | 0.00 | 0.00 | 55 | 1020.0 |
| 20260504030438 | 67 | 180 | 0.0 | 1.7 | 0.00 | 0.00 | 0.00 | 54 | 1020.0 |
| 20260504025431 | 68 | 175 | 0.0 | 2.6 | 0.00 | 0.00 | 0.00 | 52 | 1020.0 |
| 20260504024429 | 68 | 176 | 0.9 | 3.5 | 0.00 | 0.00 | 0.00 | 51 | 1019.7 |
| 20260504023423 | 68 | 240 | 0.0 | 1.7 | 0.00 | 0.00 | 0.00 | 51 | 1019.7 |
| 20260504022420 | 68 | 234 | 0.0 | 1.7 | 0.00 | 0.00 | 0.00 | 51 | 1019.7 |
| 20260504021414 | 69 | 165 | 1.7 | 2.6 | 0.00 | 0.00 | 0.00 | 50 | 1019.7 |
| 20260504020412 | 69 | 187 | 0.0 | 2.6 | 0.00 | 0.00 | 0.00 | 49 | 1019.7 |
| 20260504015405 | 69 | 178 | 1.7 | 5.2 | 0.00 | 0.00 | 0.00 | 48 | 1019.3 |
| 20260504014403 | 70 | 299 | 0.0 | 1.7 | 0.00 | 0.00 | 0.00 | 47 | 1019.3 |
| 20260504013857 | 70 | 207 | 0.9 | 1.7 | 0.00 | 0.00 | 0.00 | 46 | 1019.3 |
| 20260504012353 | 71 | 185 | 0.9 | 3.5 | 0.00 | 0.00 | 0.00 | 45 | 1019.3 |
| 20260504010345 | 72 | 322 | 0.0 | 2.6 | 0.00 | 0.00 | 0.00 | 41 | 1019.0 |
| 20260504005838 | 72 | 344 | 1.7 | 2.6 | 0.00 | 0.00 | 0.00 | 41 | 1019.0 |
| 20260504004836 | 72 | 316 | 0.0 | 0.9 | 0.00 | 0.00 | 0.00 | 41 | 1019.0 |
| 20260504003329 | 72 | 335 | 0.9 | 2.6 | 0.00 | 0.00 | 0.00 | 41 | 1019.0 |
| 20260504002326 | 72 | 327 | 0.0 | 5.2 | 0.00 | 0.00 | 0.00 | 41 | 1018.6 |
| 20260504001320 | 73 | 322 | 1.7 | 7.0 | 0.00 | 0.00 | 0.00 | 40 | 1018.6 |
| 20260504000318 | 73 | 338 | 2.6 | 2.6 | 0.00 | 0.00 | 0.00 | 40 | 1018.6 |
| 20260503235311 | 73 | 318 | 0.9 | 3.5 | 0.00 | 0.00 | 0.00 | 40 | 1018.6 |